When you browse on this site, cookies collect data to enhance your experience and personalize the content and advertising you see.
Visit our Privacy Policy to learn more. By continuing to use the site, you agree to this use of cookies and data.
  • In Latvia
  • List of Countries
  • For 7 days
  • Water Temperature
  • Weather Map
  • Weather Widgets
  • user-avatar
    Login

    Hourly Weather Baraki Barak

    Today, 23 January, Thursday

    Time Temperature Precipitation Wind Pressure Humidity
    00:00 -12°C° 0 mm 1 mps 595 mmHg 67%
    01:00 -12°C° 0 mm 1 mps 594 mmHg 65%
    02:00 -12°C° 0 mm 1 mps 594 mmHg 64%
    03:00 -13°C° 0 mm 1 mps 594 mmHg 63%
    04:00 -13°C° 0 mm 1 mps 593 mmHg 62%
    05:00 -13°C° 0 mm 1 mps 593 mmHg 61%
    06:00 -13°C° 0 mm 1 mps 593 mmHg 60%
    07:00 -13°C° 0 mm 1 mps 593 mmHg 59%
    08:00 -13°C° 0 mm 1 mps 593 mmHg 58%
    09:00 -11°C° 0 mm 1 mps 594 mmHg 59%
    10:00 -8°C° 0 mm 1 mps 595 mmHg 60%
    11:00 -6°C° 0 mm 1 mps 596 mmHg 61%
    12:00 -4°C° 0 mm 1 mps 595 mmHg 62%
    13:00 -3°C° 0 mm 1 mps 595 mmHg 63%
    14:00 -3°C° 0 mm 0 mps 594 mmHg 65%
    15:00 -5°C° 0 mm 0 mps 593 mmHg 66%
    16:00 -6°C° 0 mm 0 mps 592 mmHg 67%
    17:00 -7°C° 0 mm 0 mps 592 mmHg 68%
    18:00 -8°C° 0 mm 0 mps 592 mmHg 65%
    19:00 -8°C° 0 mm 0 mps 592 mmHg 63%
    20:00 -9°C° 0 mm 0 mps 592 mmHg 60%
    21:00 -9°C° 0 mm 0 mps 593 mmHg 58%
    22:00 -9°C° 0 mm 1 mps 593 mmHg 56%
    23:00 -9°C° 0 mm 1 mps 593 mmHg 54%

    Tomorrow, 24 January, Friday

    Time Temperature Precipitation Wind Pressure Humidity
    00:00 -9°C° 0 mm 1 mps 593 mmHg 54%
    01:00 -9°C° 0 mm 0 mps 593 mmHg 53%
    02:00 -9°C° 0 mm 0 mps 592 mmHg 52%
    03:00 -9°C° 0 mm 0 mps 592 mmHg 52%
    04:00 -8°C° 0 mm 0 mps 592 mmHg 52%
    05:00 -8°C° 0 mm 0 mps 592 mmHg 52%
    06:00 -8°C° 0 mm 0 mps 592 mmHg 53%
    07:00 -8°C° 0 mm 0 mps 592 mmHg 54%
    08:00 -8°C° 0 mm 1 mps 592 mmHg 54%
    09:00 -6°C° 0 mm 0 mps 592 mmHg 58%
    10:00 -4°C° 0 mm 0 mps 593 mmHg 61%
    11:00 -2°C° 0 mm 0 mps 593 mmHg 64%
    12:00 -1°C° 0.1 mm 1 mps 593 mmHg 68%
    13:00 0°C° 0.1 mm 1 mps 592 mmHg 72%
    14:00 0°C° 0.1 mm 1 mps 592 mmHg 76%
    15:00 -1°C° 0.1 mm 1 mps 592 mmHg 81%
    16:00 -1°C° 0.1 mm 1 mps 591 mmHg 85%
    17:00 -2°C° 0.1 mm 1 mps 590 mmHg 90%
    18:00 -3°C° 0 mm 1 mps 591 mmHg 90%
    19:00 -4°C° 0 mm 1 mps 591 mmHg 89%
    20:00 -6°C° 0 mm 1 mps 591 mmHg 89%
    21:00 -6°C° 0 mm 1 mps 591 mmHg 88%
    22:00 -6°C° 0 mm 1 mps 591 mmHg 88%
    23:00 -6°C° 0 mm 1 mps 592 mmHg 87%

    Day after tomorrow, 25 January, Saturday

    Time Temperature Precipitation Wind Pressure Humidity
    00:00 -6°C° 0 mm 1 mps 592 mmHg 88%
    01:00 -6°C° 0 mm 1 mps 592 mmHg 88%
    02:00 -6°C° 0 mm 1 mps 592 mmHg 88%
    03:00 -6°C° 0 mm 1 mps 592 mmHg 88%
    04:00 -7°C° 0 mm 1 mps 592 mmHg 88%
    05:00 -7°C° 0 mm 1 mps 592 mmHg 88%
    06:00 -8°C° 0 mm 1 mps 592 mmHg 87%
    07:00 -8°C° 0 mm 1 mps 592 mmHg 86%
    08:00 -8°C° 0 mm 1 mps 592 mmHg 85%
    09:00 -7°C° 0 mm 1 mps 593 mmHg 83%
    10:00 -6°C° 0 mm 1 mps 593 mmHg 81%
    11:00 -3°C° 0 mm 1 mps 594 mmHg 79%
    12:00 -3°C° 0 mm 1 mps 593 mmHg 78%
    13:00 -2°C° 0 mm 1 mps 593 mmHg 77%
    14:00 -1°C° 0 mm 1 mps 592 mmHg 77%
    15:00 -3°C° 0 mm 0 mps 592 mmHg 78%
    16:00 -5°C° 0 mm 0 mps 591 mmHg 79%
    17:00 -6°C° 0 mm 0 mps 591 mmHg 80%
    18:00 -7°C° 0 mm 0 mps 591 mmHg 76%
    19:00 -7°C° 0 mm 1 mps 591 mmHg 72%
    20:00 -8°C° 0 mm 1 mps 592 mmHg 67%
    21:00 -9°C° 0 mm 1 mps 592 mmHg 63%
    22:00 -9°C° 0 mm 1 mps 592 mmHg 59%
    23:00 -9°C° 0 mm 1 mps 592 mmHg 56%

    26 January, Sunday

    Time Temperature Precipitation Wind Pressure Humidity
    00:00 -10°C° 0 mm 1 mps 592 mmHg 53%
    01:00 -10°C° 0 mm 1 mps 591 mmHg 51%
    02:00 -11°C° 0 mm 1 mps 591 mmHg 49%
    03:00 -11°C° 0 mm 1 mps 590 mmHg 47%
    04:00 -11°C° 0 mm 1 mps 590 mmHg 45%
    05:00 -12°C° 0 mm 1 mps 590 mmHg 43%
    06:00 -12°C° 0 mm 1 mps 590 mmHg 42%
    07:00 -12°C° 0 mm 1 mps 590 mmHg 40%
    08:00 -12°C° 0 mm 1 mps 590 mmHg 38%
    09:00 -10°C° 0 mm 1 mps 591 mmHg 41%
    10:00 -7°C° 0 mm 1 mps 592 mmHg 45%
    11:00 -4°C° 0 mm 1 mps 593 mmHg 48%
    12:00 -4°C° 0 mm 0 mps 592 mmHg 50%
    13:00 -4°C° 0 mm 0 mps 591 mmHg 53%
    14:00 -3°C° 0 mm 0 mps 591 mmHg 55%
    15:00 -4°C° 0 mm 0 mps 590 mmHg 56%
    16:00 -6°C° 0 mm 0 mps 590 mmHg 57%
    17:00 -7°C° 0 mm 0 mps 589 mmHg 58%
    18:00 -8°C° 0 mm 0 mps 589 mmHg 55%
    19:00 -9°C° 0 mm 0 mps 589 mmHg 53%
    20:00 -9°C° 0 mm 1 mps 589 mmHg 50%
    21:00 -10°C° 0 mm 1 mps 589 mmHg 50%
    22:00 -10°C° 0 mm 1 mps 589 mmHg 49%
    23:00 -10°C° 0 mm 1 mps 590 mmHg 49%

    27 January, Monday

    Time Temperature Precipitation Wind Pressure Humidity
    00:00 -10°C° 0 mm 1 mps 589 mmHg 49%
    01:00 -11°C° 0 mm 1 mps 589 mmHg 49%
    02:00 -11°C° 0 mm 1 mps 589 mmHg 49%
    03:00 -11°C° 0 mm 1 mps 588 mmHg 49%
    04:00 -11°C° 0 mm 1 mps 588 mmHg 50%
    05:00 -10°C° 0 mm 1 mps 588 mmHg 50%
    06:00 -10°C° 0 mm 1 mps 589 mmHg 50%
    07:00 -10°C° 0 mm 1 mps 589 mmHg 51%
    08:00 -10°C° 0 mm 1 mps 589 mmHg 52%
    09:00 -9°C° 0 mm 1 mps 590 mmHg 53%
    10:00 -7°C° 0 mm 1 mps 590 mmHg 55%
    11:00 -4°C° 0 mm 1 mps 591 mmHg 56%
    12:00 -4°C° 0 mm 1 mps 590 mmHg 59%
    13:00 -3°C° 0 mm 1 mps 590 mmHg 61%
    14:00 -2°C° 0 mm 1 mps 590 mmHg 63%
    15:00 -3°C° 0 mm 1 mps 589 mmHg 67%
    16:00 -5°C° 0 mm 0 mps 589 mmHg 72%
    17:00 -6°C° 0 mm 0 mps 589 mmHg 76%
    18:00 -6°C° 0 mm 0 mps 589 mmHg 77%
    19:00 -7°C° 0 mm 1 mps 590 mmHg 77%
    20:00 -8°C° 0 mm 1 mps 590 mmHg 77%
    21:00 -8°C° 0 mm 1 mps 591 mmHg 79%
    22:00 -8°C° 0 mm 1 mps 591 mmHg 80%
    23:00 -8°C° 0 mm 1 mps 591 mmHg 81%

    28 January, Tuesday

    Time Temperature Precipitation Wind Pressure Humidity
    00:00 -9°C° 0 mm 1 mps 591 mmHg 80%
    01:00 -9°C° 0 mm 1 mps 591 mmHg 79%
    02:00 -10°C° 0 mm 1 mps 591 mmHg 78%
    03:00 -10°C° 0 mm 1 mps 590 mmHg 76%
    04:00 -11°C° 0 mm 1 mps 590 mmHg 73%
    05:00 -14°C° 0 mm 2 mps 590 mmHg 71%
    06:00 -14°C° 0 mm 2 mps 590 mmHg 70%
    07:00 -14°C° 0 mm 2 mps 590 mmHg 68%
    08:00 -15°C° 0 mm 2 mps 590 mmHg 67%
    09:00 -11°C° 0 mm 1 mps 591 mmHg 66%
    10:00 -9°C° 0 mm 1 mps 591 mmHg 66%
    11:00 -8°C° 0 mm 1 mps 592 mmHg 66%
    12:00 -7°C° 0 mm 1 mps 591 mmHg 65%
    13:00 -6°C° 0 mm 1 mps 591 mmHg 64%
    14:00 -4°C° 0 mm 1 mps 590 mmHg 64%
    15:00 -6°C° 0 mm 1 mps 590 mmHg 65%
    16:00 -8°C° 0 mm 1 mps 590 mmHg 66%
    17:00 -9°C° 0 mm 1 mps 589 mmHg 67%
    18:00 -10°C° 0 mm 1 mps 590 mmHg 65%
    19:00 -11°C° 0 mm 1 mps 590 mmHg 63%
    20:00 -11°C° 0 mm 1 mps 590 mmHg 61%
    21:00 -12°C° 0 mm 1 mps 590 mmHg 61%
    22:00 -12°C° 0 mm 1 mps 590 mmHg 61%
    23:00 -13°C° 0 mm 1 mps 590 mmHg 61%
    Show more